San Antonio, TX

3:17 PM CDT on May 28, 2017 (GMT -0500)
San Antonio International

Weather History for KSAT - March, 2013

Change the Weather History Date:

Tuesday, March 26, 2013

  Actual Average Record
Temperature  
Mean Temperature 52 °F 64 °F  
Max Temperature 66 °F 76 °F 97 °F (1950)
Min Temperature 38 °F 53 °F 31 °F (1955)
Degree Days  
Heating Degree Days 13 3  
Month to date heating degree days 130 138  
Since 1 July heating degree days 1124 1439  
Cooling Degree Days 0 3  
Month to date cooling degree days 57 51  
Year to date cooling degree days 97 77  
Growing Degree Days 2 (Base 50)    
Moisture  
Dew Point 20 °F    
Average Humidity 30    
Maximum Humidity 44    
Minimum Humidity 15    
Precipitation  
Precipitation 0.00 in 0.08 in 1.47 in (1900)
Month to date precipitation 0.76 1.98  
Year to date precipitation 3.69 5.53  
Snow  
Snow 0.00 in - - ()
Month to date snowfall 0.0  
Since 1 July snowfall T  
Snow Depth 0.00 in    
Sea Level Pressure  
Sea Level Pressure 30.36 in    
Wind  
Wind Speed 6 mph (East)    
Max Wind Speed 17 mph    
Max Gust Speed 21 mph    
Visibility 10 miles    
Events      
T = Trace of Precipitation, MM = Missing Value Source: NWS Daily Summary

Daily Weather History Graph

Daily Weather History Graph

Search for Another Location

Airport or City:

Trip Planner

Search our weather history database for the weather conditions in past years. The results will help you decide how hot, cold, wet, or windy it might be!

Date:

Astronomy

Mar. 26, 2013 Rise Set
Actual Time 7:30 AM CDT 7:49 PM CDT
Civil Twilight 7:06 AM CDT 8:12 PM CDT
Nautical Twilight 6:38 AM CDT 8:40 PM CDT
Astronomical Twilight 6:10 AM CDT 9:08 PM CDT
Moon 7:26 PM CDT (3/26) 6:46 AM CDT (3/26)
Length of Visible Light 13h 06m
Length of Day
12h 18m
Waxing Gibbous, 99% of the Moon is Illuminated
Mar 26
Waxing Gibbous
Mar 27
Full
Apr 2
Last Quarter
Apr 10
New
Apr 18
First Quarter

Hourly Weather History & Observations

Time (CDT) Temp. Windchill Dew Point Humidity Pressure Visibility Wind Dir Wind Speed Gust Speed Precip Events Conditions
12:51 AM 45.0 °F 43.5 °F 21.9 °F 40% 30.37 in 10.0 mi NNE 3.5 mph - N/A   Partly Cloudy
1:51 AM 45.0 °F 40.6 °F 21.9 °F 40% 30.38 in 10.0 mi NNE 8.1 mph - N/A   Partly Cloudy
2:51 AM 45.0 °F 40.1 °F 21.0 °F 39% 30.37 in 10.0 mi NE 9.2 mph - N/A   Clear
3:51 AM 44.1 °F 39.5 °F 19.9 °F 38% 30.36 in 10.0 mi NNE 8.1 mph - N/A   Clear
4:51 AM 42.1 °F 40.2 °F 19.0 °F 40% 30.37 in 10.0 mi NE 3.5 mph - N/A   Clear
5:51 AM 39.9 °F 37.8 °F 19.9 °F 45% 30.38 in 10.0 mi NE 3.5 mph - N/A   Clear
6:51 AM 39.0 °F - 19.9 °F 46% 30.40 in 10.0 mi Calm Calm - N/A   Clear
7:51 AM 39.9 °F - 19.9 °F 45% 30.43 in 10.0 mi Calm Calm - N/A   Partly Cloudy
8:51 AM 45.0 °F 41.2 °F 21.0 °F 39% 30.45 in 10.0 mi ENE 6.9 mph - N/A   Partly Cloudy
9:51 AM 48.9 °F - 19.0 °F 31% 30.47 in 10.0 mi East 5.8 mph - N/A   Partly Cloudy
10:51 AM 53.1 °F - 18.0 °F 25% 30.47 in 10.0 mi Variable 6.9 mph - N/A   Partly Cloudy
11:51 AM 55.0 °F - 18.0 °F 23% 30.45 in 10.0 mi Calm Calm - N/A   Partly Cloudy
12:51 PM 59.0 °F - 19.9 °F 22% 30.42 in 10.0 mi SE 5.8 mph - N/A   Partly Cloudy
1:51 PM 62.1 °F - 19.0 °F 19% 30.38 in 10.0 mi East 8.1 mph - N/A   Partly Cloudy
2:51 PM 63.0 °F - 18.0 °F 18% 30.34 in 10.0 mi South 4.6 mph - N/A   Partly Cloudy
3:51 PM 64.0 °F - 16.0 °F 16% 30.30 in 10.0 mi Calm Calm - N/A   Partly Cloudy
4:51 PM 64.0 °F - 16.0 °F 16% 30.28 in 10.0 mi Calm Calm - N/A   Partly Cloudy
5:51 PM 64.9 °F - 16.0 °F 15% 30.26 in 10.0 mi South 5.8 mph - N/A   Partly Cloudy
6:51 PM 64.0 °F - 17.1 °F 16% 30.26 in 10.0 mi SE 4.6 mph - N/A   Partly Cloudy
7:51 PM 57.0 °F - 19.0 °F 23% 30.26 in 10.0 mi SSE 9.2 mph - N/A   Partly Cloudy
8:51 PM 53.1 °F - 19.0 °F 26% 30.26 in 10.0 mi ESE 6.9 mph - N/A   Partly Cloudy
9:51 PM 51.1 °F - 21.9 °F 32% 30.27 in 10.0 mi ESE 6.9 mph - N/A   Partly Cloudy
10:51 PM 54.0 °F - 19.9 °F 26% 30.29 in 10.0 mi SE 13.8 mph - N/A   Partly Cloudy
11:51 PM 53.1 °F - 28.9 °F 40% 30.30 in 10.0 mi SSE 11.5 mph - N/A   Clear